FW0183 Weather Reports


time (UTC)temp
F
wind
direction
speed
knots
gust
knots
rain 1hr
in
rain 24hr
in
rain mn
in
humidity
%
barometer
mb
20260503010052 39 22 1.7 5.2 0.00 0.00 0.00 60 1016.9
20260503004545 39 288 1.7 7.8 0.00 0.00 0.00 59 1016.9
20260503003038 40 33 1.7 7.0 0.00 0.00 0.00 58 1016.8
20260503001538 40 50 2.6 7.0 0.00 0.00 0.00 57 1016.6
20260503000026 42 334 2.6 7.0 0.00 0.00 0.00 56 1016.4
20260502234528 42 318 1.7 5.2 0.00 0.00 0.00 56 1016.3
20260502233015 43 315 1.7 7.0 0.00 0.00 0.00 54 1016.1
20260502231509 42 315 2.6 10.4 0.00 0.00 0.00 56 1016.1
20260502230005 43 360 1.7 7.0 0.00 0.00 0.00 55 1016.1
20260502224639 43 326 3.5 8.7 0.00 0.00 0.00 55 1016.0
20260502223033 43 17 2.6 9.6 0.00 0.00 0.00 54 1016.0
20260502221616 44 326 3.5 11.3 0.00 0.00 0.00 53 1015.8
20260502220009 44 46 2.6 7.8 0.00 0.00 0.00 52 1015.5
20260502214502 44 328 3.5 11.3 0.00 0.00 0.00 52 1015.3
20260502213057 44 42 2.6 7.8 0.00 0.00 0.00 52 1015.3
20260502211550 46 355 1.7 7.8 0.00 0.00 0.00 50 1014.9
20260502210058 46 336 2.6 7.8 0.00 0.00 0.00 54 1015.0
20260502204541 45 355 2.6 7.8 0.00 0.00 0.00 54 1014.9
20260502203031 46 42 4.3 12.2 0.00 0.00 0.00 49 1015.0
20260502201507 48 35 4.3 11.3 0.00 0.00 0.00 49 1015.0
20260502200101 46 75 2.6 8.7 0.00 0.00 0.00 51 1015.4
20260502194542 45 267 2.6 7.8 0.00 0.00 0.00 52 1015.2
20260502193036 48 59 3.5 8.7 0.00 0.00 0.00 47 1015.2
20260502191530 47 360 6.1 11.3 0.00 0.00 0.00 51 1015.0
20260502190034 47 68 1.7 13.9 0.00 0.00 0.00 49 1014.8
20260502184623 49 322 2.6 12.2 0.00 0.00 0.00 47 1014.9
20260502183116 48 5 1.7 11.3 0.00 0.00 0.00 47 1015.0
20260502181609 51 35 1.7 7.8 0.00 0.00 0.00 47 1015.1
20260502163011 50 39 5.2 11.3 0.00 0.00 0.00 47 1015.5
20260502161505 48 337 4.3 10.4 0.00 0.00 0.00 48 1015.6
20260502151622 46 28 2.6 9.6 0.00 0.00 0.00 51 1016.0
20260502123043 36 48 6.1 11.3 0.00 0.00 0.00 71 1016.0
20260502121546 36 360 9.6 12.2 0.00 0.00 0.00 71 1015.9
20260502114522 36 360 2.6 9.6 0.00 0.00 0.00 72 1015.8
20260502113015 35 360 2.6 9.6 0.00 0.00 0.00 73 1015.9
20260502110148 34 360 0.9 2.6 0.00 0.00 0.00 76 1015.5
20260502104540 34 360 0.0 1.7 0.00 0.00 0.00 74 1015.3
20260502103038 35 360 0.0 1.7 0.00 0.00 0.00 73 1015.3
20260502101535 35 360 0.0 0.0 0.00 0.00 0.00 72 1015.4
20260502070028 40 33 1.7 10.4 0.00 0.00 0.00 75 1015.6
20260502064529 41 78 0.9 3.5 0.00 0.00 0.00 78 1015.8
20260502063027 41 42 1.7 7.8 0.00 0.00 0.00 78 1016.1
20260502061516 41 42 1.7 7.8 0.00 0.00 0.00 76 1016.2
20260502060009 42 51 0.9 3.5 0.00 0.00 0.00 75 1016.4
20260502054503 42 51 0.0 3.5 0.00 0.00 0.00 75 1016.4
20260502053124 42 51 0.9 9.6 0.00 0.00 0.00 74 1016.6
20260502051604 42 57 0.9 5.2 0.00 0.00 0.00 74 1016.3
20260502050045 42 45 2.6 6.1 0.00 0.00 0.00 73 1016.2
20260502044540 43 9 2.6 5.2 0.00 0.00 0.00 72 1016.2
20260502043026 43 46 1.7 4.3 0.00 0.00 0.00 73 1016.3
20260502041527 43 35 5.2 9.6 0.00 0.00 0.00 73 1016.4
20260502040014 44 37 2.6 10.4 0.00 0.00 0.00 73 1016.5
20260502034509 44 53 0.0 4.3 0.00 0.00 0.00 72 1016.5
20260502033002 44 55 1.7 13.0 0.00 0.00 0.00 71 1016.4
20260502031557 45 36 1.7 5.2 0.00 0.00 0.00 72 1016.5
20260502030054 45 55 0.9 5.2 0.00 0.00 0.00 71 1016.6
20260502024544 45 63 0.9 6.1 0.00 0.00 0.00 72 1016.5
20260502023028 46 23 0.9 5.2 0.00 0.00 0.00 72 1016.3
20260502021527 46 18 1.7 8.7 0.00 0.00 0.00 71 1016.3
20260502020026 46 45 1.7 5.2 0.00 0.00 0.00 72 1016.0
20260502014620 47 49 1.7 7.8 0.00 0.00 0.00 71 1015.7
20260502013013 47 64 2.6 9.6 0.00 0.00 0.00 70 1015.3
20260502011507 48 42 2.6 11.3 0.00 0.00 0.00 66 1015.4